RYR8128 EICK-LIRP

Flight info

Callsign RYR8128
Flight time N/A
Altitude 35000
Route ERTER1N ERTER DCT LEDGO DCT DOLUR DCT NOKVI DCT ANG DCT PEPAX DCT TIS DCT RONOP DCT TOP/N0348F190 L50 KONER
Aircraft B738/M-SDE2E3FGHIRWXY/LB1

Departure

Time 2026-05-04 10:30
Airport Cork International Airport (EICK)

Arrival

Time N/A
Airport Pisa International Airport (LIRP)
Time Latitude Longitude Altitude Speed Heading
2026-05-04 10:14 51.84757 -8.49033 502 ft 0 kts 70°
2026-05-04 10:22 51.84756 -8.49036 502 ft 2 kts 70°
2026-05-04 10:22 51.84751 -8.49062 502 ft 2 kts 73°
2026-05-04 10:23 51.84747 -8.49088 502 ft 2 kts 78°
2026-05-04 10:23 51.84744 -8.49114 502 ft 2 kts 85°
2026-05-04 10:25 51.84770 -8.49203 502 ft 0 kts 160°
2026-05-04 10:26 51.84769 -8.49203 502 ft 2 kts 160°
2026-05-04 10:26 51.84714 -8.49169 502 ft 11 kts 159°
2026-05-04 10:26 51.84640 -8.49125 500 ft 12 kts 162°
2026-05-04 10:26 51.84532 -8.49063 495 ft 20 kts 160°
2026-05-04 10:27 51.84402 -8.48987 480 ft 16 kts 165°
2026-05-04 10:27 51.84323 -8.49095 480 ft 17 kts 244°
2026-05-04 10:27 51.84253 -8.49178 480 ft 13 kts 169°
2026-05-04 10:27 51.84131 -8.49109 477 ft 26 kts 160°
2026-05-04 10:28 51.83942 -8.48996 471 ft 30 kts 160°
2026-05-04 10:28 51.83742 -8.48876 467 ft 30 kts 160°
2026-05-04 10:28 51.83552 -8.48767 469 ft 28 kts 160°
2026-05-04 10:28 51.83374 -8.48661 469 ft 27 kts 158°
2026-05-04 10:29 51.83277 -8.48525 471 ft 4 kts 169°
2026-05-04 10:29 51.83245 -8.48559 470 ft 6 kts 240°
2026-05-04 10:29 51.83255 -8.48594 471 ft 4 kts 322°
2026-05-04 10:29 51.83320 -8.48631 470 ft 32 kts 340°
2026-05-04 10:30 51.83798 -8.48912 467 ft 112 kts 340°
2026-05-04 10:30 51.84735 -8.49470 575 ft 167 kts 341°
2026-05-04 10:30 51.85864 -8.50160 1468 ft 181 kts 342°
2026-05-04 10:30 51.87094 -8.50877 2330 ft 193 kts 343°
2026-05-04 10:31 51.88408 -8.51466 2970 ft 203 kts 357°
2026-05-04 10:31 51.89815 -8.51166 3626 ft 200 kts 24°
2026-05-04 10:32 51.87988 -8.37128 6060 ft 262 kts 116°
2026-05-04 10:33 51.87136 -8.34481 6870 ft 268 kts 115°
2026-05-04 10:33 51.86286 -8.31775 7745 ft 270 kts 115°
2026-05-04 10:33 51.85436 -8.29041 8590 ft 275 kts 115°
2026-05-04 10:33 51.84543 -8.26274 9401 ft 280 kts 122°
2026-05-04 10:34 51.83268 -8.23875 10249 ft 282 kts 134°
2026-05-04 10:34 51.81849 -8.21568 10681 ft 301 kts 134°
2026-05-04 10:34 51.80316 -8.19071 10899 ft 324 kts 134°
2026-05-04 10:34 51.78710 -8.16425 11467 ft 334 kts 133°
2026-05-04 10:35 51.77076 -8.13713 12198 ft 338 kts 133°
2026-05-04 10:35 51.75431 -8.10972 12982 ft 342 kts 133°
2026-05-04 10:35 51.73746 -8.08253 13769 ft 345 kts 139°
2026-05-04 10:35 51.71625 -8.06392 14431 ft 352 kts 162°
2026-05-04 10:36 51.69226 -8.05843 15143 ft 356 kts 178°
2026-05-04 10:36 51.66734 -8.05870 15809 ft 361 kts 179°
2026-05-04 10:36 51.64214 -8.05941 16488 ft 364 kts 179°
2026-05-04 10:36 51.61666 -8.05987 17163 ft 367 kts 179°
2026-05-04 10:37 51.59095 -8.06006 17824 ft 371 kts 178°
2026-05-04 10:37 51.56559 -8.05314 18421 ft 372 kts 157°
2026-05-04 10:37 51.54327 -8.03234 19020 ft 372 kts 139°
2026-05-04 10:37 51.52417 -8.00417 19626 ft 373 kts 135°
2026-05-04 10:39 51.40953 -7.82603 22942 ft 392 kts 135°
2026-05-04 10:39 51.38970 -7.79568 23472 ft 395 kts 135°
2026-05-04 10:39 51.36975 -7.76522 23926 ft 398 kts 135°
2026-05-04 10:40 51.34963 -7.73455 24343 ft 401 kts 135°
2026-05-04 10:40 51.32959 -7.70403 24754 ft 403 kts 135°
2026-05-04 10:40 51.31395 -7.68025 25074 ft 405 kts 135°
2026-05-04 10:40 51.30012 -7.65923 25358 ft 407 kts 135°
2026-05-04 10:41 51.27284 -7.61781 25926 ft 409 kts 135°
2026-05-04 10:41 51.26588 -7.60726 26053 ft 410 kts 135°